Time,TemperatureF,DewpointF,PressureIn,WindDirection,WindDirectionDegrees,WindSpeedMPH,WindSpeedGustMPH,Humidity,HourlyPrecipIn,Conditions,Clouds,dailyrainin,SoftwareType,DateUTC
2013-03-29 00:00:00,40.6,5.7,30.06,South,189,6.0,7.0,23,0.00,,,0.04,meteohub,2013-03-29 04:00:00,
2013-03-29 00:02:00,40.6,5.7,30.06,SSW,194,6.0,7.0,23,0.00,,,0.04,meteohub,2013-03-29 04:02:00,
2013-03-29 00:08:00,40.6,5.7,30.06,SSW,210,4.0,7.0,23,0.00,,,0.00,meteohub,2013-03-29 04:08:00,
2013-03-29 00:13:00,40.6,5.7,30.06,SSW,200,5.0,8.0,23,0.00,,,0.00,meteohub,2013-03-29 04:13:00,
2013-03-29 00:18:00,40.6,5.7,30.06,SSW,198,8.0,8.0,23,0.00,,,0.00,meteohub,2013-03-29 04:18:00,
2013-03-29 00:23:00,40.6,5.7,30.06,SSW,205,7.0,8.0,23,0.00,,,0.00,meteohub,2013-03-29 04:23:00,
2013-03-29 00:28:00,40.6,8.4,30.06,SSW,201,6.0,8.0,26,0.00,,,0.00,meteohub,2013-03-29 04:28:00,
2013-03-29 00:34:00,40.6,5.7,30.06,SSW,212,6.0,8.0,23,0.00,,,0.00,meteohub,2013-03-29 04:34:00,
2013-03-29 00:39:00,40.6,5.7,30.06,SSW,201,5.0,8.0,23,0.00,,,0.00,meteohub,2013-03-29 04:39:00,
2013-03-29 00:45:00,40.6,5.7,30.06,SSW,202,6.0,8.0,23,0.00,,,0.00,meteohub,2013-03-29 04:45:00,
2013-03-29 00:50:00,40.6,5.7,30.06,SSW,208,4.0,7.0,23,0.00,,,0.00,meteohub,2013-03-29 04:50:00,
2013-03-29 00:55:00,40.5,5.5,30.06,SSW,202,5.0,7.0,23,0.00,,,0.00,meteohub,2013-03-29 04:55:00,
2013-03-29 01:02:00,40.5,5.5,30.09,SSW,209,4.0,7.0,23,0.00,,,0.00,meteohub,2013-03-29 05:02:00,
2013-03-29 01:07:00,40.5,5.5,30.09,SSW,208,5.0,6.0,23,0.00,,,0.00,meteohub,2013-03-29 05:07:00,
2013-03-29 01:12:00,40.5,3.6,30.09,SSW,211,5.0,6.0,21,0.00,,,0.00,meteohub,2013-03-29 05:12:00,
2013-03-29 01:17:00,40.5,3.6,30.06,SSW,199,4.0,6.0,21,0.00,,,0.00,meteohub,2013-03-29 05:17:00,
2013-03-29 01:22:00,40.5,3.6,30.06,South,184,4.0,6.0,21,0.00,,,0.00,meteohub,2013-03-29 05:22:00,
2013-03-29 01:27:00,40.5,5.5,30.06,SSW,206,4.0,6.0,23,0.00,,,0.00,meteohub,2013-03-29 05:27:00,
2013-03-29 01:32:00,40.5,5.5,30.06,SSW,207,5.0,7.0,23,0.00,,,0.00,meteohub,2013-03-29 05:32:00,
2013-03-29 01:37:00,40.5,3.6,30.06,SSW,202,4.0,7.0,21,0.00,,,0.00,meteohub,2013-03-29 05:37:00,
2013-03-29 01:42:00,40.5,3.6,30.06,SSW,208,5.0,6.0,21,0.00,,,0.00,meteohub,2013-03-29 05:42:00,
2013-03-29 01:48:00,40.5,3.6,30.06,SSW,212,5.0,6.0,21,0.00,,,0.00,meteohub,2013-03-29 05:48:00,
2013-03-29 01:53:00,40.5,3.6,30.06,SSW,213,6.0,6.0,21,0.00,,,0.00,meteohub,2013-03-29 05:53:00,
2013-03-29 01:59:00,40.6,3.7,30.06,SSW,206,4.0,6.0,21,0.00,,,0.00,meteohub,2013-03-29 05:59:00,
2013-03-29 02:04:00,40.6,3.7,30.06,SSW,200,5.0,6.0,21,0.00,,,0.00,meteohub,2013-03-29 06:04:00,
2013-03-29 02:09:00,40.6,3.7,30.06,SSW,197,6.0,6.0,21,0.00,,,0.00,meteohub,2013-03-29 06:09:00,
2013-03-29 02:14:00,40.6,3.7,30.06,SSW,204,5.0,6.0,21,0.00,,,0.00,meteohub,2013-03-29 06:14:00,
2013-03-29 02:20:00,40.8,3.9,30.06,SSW,199,6.0,7.0,21,0.00,,,0.00,meteohub,2013-03-29 06:20:00,
2013-03-29 02:25:00,41.0,4.1,30.06,SSW,194,5.0,7.0,21,0.00,,,0.00,meteohub,2013-03-29 06:25:00,
2013-03-29 02:30:00,41.0,4.1,30.06,SSW,204,6.0,7.0,21,0.00,,,0.00,meteohub,2013-03-29 06:30:00,
2013-03-29 02:36:00,41.0,4.1,30.06,SSW,205,5.0,7.0,21,0.00,,,0.00,meteohub,2013-03-29 06:36:00,
2013-03-29 02:41:00,41.0,4.1,30.06,SSW,207,4.0,7.0,21,0.00,,,0.00,meteohub,2013-03-29 06:41:00,
2013-03-29 02:46:00,40.8,0.5,30.06,SW,217,4.0,6.0,18,0.00,,,0.00,meteohub,2013-03-29 06:46:00,
2013-03-29 02:52:00,40.8,3.9,30.06,SSW,209,4.0,6.0,21,0.00,,,0.00,meteohub,2013-03-29 06:52:00,
2013-03-29 02:57:00,40.8,0.5,30.06,SSW,211,6.0,6.0,18,0.00,,,0.00,meteohub,2013-03-29 06:57:00,
2013-03-29 03:02:00,40.8,0.5,30.06,SSW,212,5.0,6.0,18,0.00,,,0.00,meteohub,2013-03-29 07:02:00,
2013-03-29 03:07:00,40.8,0.5,30.06,WSW,239,7.0,7.0,18,0.00,,,0.00,meteohub,2013-03-29 07:07:00,
2013-03-29 03:12:00,40.8,-2.0,30.06,SW,220,6.0,7.0,16,0.00,,,0.00,meteohub,2013-03-29 07:12:00,
2013-03-29 03:17:00,40.6,-2.0,30.06,WSW,237,5.0,7.0,16,0.00,,,0.00,meteohub,2013-03-29 07:17:00,
2013-03-29 03:22:00,40.6,-2.0,30.06,SW,223,5.0,8.0,16,0.00,,,0.00,meteohub,2013-03-29 07:22:00,
2013-03-29 03:28:00,40.5,-2.2,30.06,SW,225,4.0,8.0,16,0.00,,,0.00,meteohub,2013-03-29 07:28:00,
2013-03-29 03:33:00,40.5,-2.2,30.06,WSW,241,5.0,8.0,16,0.00,,,0.00,meteohub,2013-03-29 07:33:00,
2013-03-29 03:38:00,40.3,-2.4,30.06,SW,219,8.0,9.0,16,0.00,,,0.00,meteohub,2013-03-29 07:38:00,
2013-03-29 03:43:00,40.3,-2.4,30.06,SW,226,6.0,9.0,16,0.00,,,0.00,meteohub,2013-03-29 07:43:00,
2013-03-29 03:49:00,40.3,-2.4,30.06,WSW,243,8.0,10.0,16,0.00,,,0.00,meteohub,2013-03-29 07:49:00,
2013-03-29 03:54:00,40.1,0.0,30.06,SW,229,6.0,10.0,18,0.00,,,0.00,meteohub,2013-03-29 07:54:00,
2013-03-29 03:59:00,40.1,0.0,30.06,SW,216,5.0,10.0,18,0.00,,,0.00,meteohub,2013-03-29 07:59:00,
2013-03-29 04:04:00,39.9,-0.2,30.06,SW,228,6.0,10.0,18,0.00,,,0.00,meteohub,2013-03-29 08:04:00,
2013-03-29 04:09:00,39.9,-0.2,30.06,SSW,210,10.0,10.0,18,0.00,,,0.00,meteohub,2013-03-29 08:09:00,
2013-03-29 04:15:00,39.7,-0.4,30.06,WSW,238,5.0,10.0,18,0.00,,,0.00,meteohub,2013-03-29 08:15:00,
2013-03-29 04:20:00,39.7,-0.4,30.06,SW,234,6.0,10.0,18,0.00,,,0.00,meteohub,2013-03-29 08:20:00,
2013-03-29 04:25:00,39.7,-0.4,30.06,SSW,212,5.0,10.0,18,0.00,,,0.00,meteohub,2013-03-29 08:25:00,
2013-03-29 04:30:00,39.7,-0.4,30.06,SSW,205,6.0,10.0,18,0.00,,,0.00,meteohub,2013-03-29 08:30:00,
2013-03-29 04:35:00,39.6,-0.4,30.06,WSW,239,6.0,11.0,18,0.00,,,0.00,meteohub,2013-03-29 08:35:00,
2013-03-29 04:40:00,39.4,-0.6,30.06,SW,214,5.0,11.0,18,0.00,,,0.00,meteohub,2013-03-29 08:40:00,
2013-03-29 04:46:00,39.4,-0.6,30.06,SW,217,6.0,11.0,18,0.00,,,0.00,meteohub,2013-03-29 08:46:00,
2013-03-29 04:51:00,39.4,2.7,30.06,WSW,239,6.0,9.0,21,0.00,,,0.00,meteohub,2013-03-29 08:51:00,
2013-03-29 04:56:00,39.2,2.5,30.06,SW,218,5.0,9.0,21,0.00,,,0.00,meteohub,2013-03-29 08:56:00,
2013-03-29 05:02:00,39.2,2.5,30.06,SW,218,5.0,9.0,21,0.00,,,0.00,meteohub,2013-03-29 09:02:00,
2013-03-29 05:07:00,39.0,2.3,30.06,SW,216,8.0,9.0,21,0.00,,,0.00,meteohub,2013-03-29 09:07:00,
2013-03-29 05:12:00,39.0,2.3,30.06,WSW,240,4.0,9.0,21,0.00,,,0.00,meteohub,2013-03-29 09:12:00,
2013-03-29 05:18:00,38.8,2.3,30.06,SW,226,6.0,9.0,21,0.00,,,0.00,meteohub,2013-03-29 09:18:00,
2013-03-29 05:23:00,38.8,2.3,30.06,SW,230,4.0,9.0,21,0.00,,,0.00,meteohub,2013-03-29 09:23:00,
2013-03-29 05:28:00,38.7,5.0,30.06,WSW,245,7.0,8.0,24,0.00,,,0.00,meteohub,2013-03-29 09:28:00,
2013-03-29 05:33:00,38.7,5.0,30.06,WSW,246,6.0,8.0,24,0.00,,,0.00,meteohub,2013-03-29 09:33:00,
2013-03-29 05:39:00,38.7,5.0,30.06,WSW,250,5.0,8.0,24,0.00,,,0.00,meteohub,2013-03-29 09:39:00,
2013-03-29 05:44:00,38.5,4.8,30.06,SW,232,4.0,11.0,24,0.00,,,0.00,meteohub,2013-03-29 09:44:00,
2013-03-29 05:49:00,38.5,4.8,30.06,WSW,244,3.0,11.0,24,0.00,,,0.00,meteohub,2013-03-29 09:49:00,
2013-03-29 05:55:00,38.3,4.6,30.06,WSW,237,6.0,11.0,24,0.00,,,0.00,meteohub,2013-03-29 09:55:00,
2013-03-29 06:00:00,38.3,4.6,30.06,WSW,243,4.0,8.0,24,0.00,,,0.00,meteohub,2013-03-29 10:00:00,
2013-03-29 06:06:00,38.1,4.5,30.06,SW,235,8.0,8.0,24,0.00,,,0.00,meteohub,2013-03-29 10:06:00,
2013-03-29 06:11:00,38.1,4.5,30.06,SW,232,5.0,8.0,24,0.00,,,0.00,meteohub,2013-03-29 10:11:00,
2013-03-29 06:17:00,38.1,6.3,30.06,SW,236,4.0,8.0,26,0.00,,,0.00,meteohub,2013-03-29 10:17:00,
2013-03-29 06:22:00,38.1,8.6,30.06,SW,235,6.0,8.0,29,0.00,,,0.00,meteohub,2013-03-29 10:22:00,
2013-03-29 06:27:00,38.1,8.6,30.06,SSW,208,4.0,8.0,29,0.00,,,0.00,meteohub,2013-03-29 10:27:00,
2013-03-29 06:33:00,38.1,6.3,30.06,SW,220,5.0,8.0,26,0.00,,,0.00,meteohub,2013-03-29 10:33:00,
2013-03-29 06:38:00,37.9,6.1,30.06,SW,217,4.0,8.0,26,0.00,,,0.00,meteohub,2013-03-29 10:38:00,
2013-03-29 06:43:00,37.9,6.1,30.06,SSW,197,0.0,6.0,26,0.00,,,0.00,meteohub,2013-03-29 10:43:00,
2013-03-29 06:48:00,37.9,6.1,30.09,SSW,199,0.0,6.0,26,0.00,,,0.00,meteohub,2013-03-29 10:48:00,
2013-03-29 06:54:00,37.9,6.1,30.09,SSW,197,2.0,6.0,26,0.00,,,0.00,meteohub,2013-03-29 10:54:00,
2013-03-29 06:59:00,37.9,6.1,30.09,SSW,197,0.0,6.0,26,0.00,,,0.00,meteohub,2013-03-29 10:59:00,
2013-03-29 07:04:00,37.9,6.1,30.09,SSW,207,3.0,6.0,26,0.00,,,0.00,meteohub,2013-03-29 11:04:00,
2013-03-29 07:09:00,37.9,6.1,30.09,SSW,207,0.0,4.0,26,0.00,,,0.00,meteohub,2013-03-29 11:09:00,
2013-03-29 07:14:00,37.9,6.1,30.09,SSW,207,0.0,4.0,26,0.00,,,0.00,meteohub,2013-03-29 11:14:00,
2013-03-29 07:20:00,38.1,8.6,30.09,SSW,207,3.0,4.0,29,0.00,,,0.00,meteohub,2013-03-29 11:20:00,
2013-03-29 07:25:00,38.5,9.0,30.09,SW,217,3.0,4.0,29,0.00,,,0.00,meteohub,2013-03-29 11:25:00,
2013-03-29 07:31:00,38.7,9.9,30.09,WSW,243,6.0,6.0,30,0.00,,,0.00,meteohub,2013-03-29 11:31:00,
2013-03-29 07:36:00,39.2,9.7,30.09,SSW,212,4.0,4.0,29,0.00,,,0.00,meteohub,2013-03-29 11:36:00,
2013-03-29 07:41:00,39.6,9.1,30.09,SW,222,6.0,6.0,28,0.00,,,0.00,meteohub,2013-03-29 11:41:00,
2013-03-29 07:47:00,40.1,7.9,30.09,SW,217,10.0,10.0,26,0.00,,,0.00,meteohub,2013-03-29 11:47:00,
2013-03-29 07:52:00,40.3,5.4,30.09,WSW,251,8.0,9.0,23,0.00,,,0.00,meteohub,2013-03-29 11:52:00,
2013-03-29 07:57:00,40.5,5.5,30.09,SW,229,3.0,9.0,23,0.00,,,0.00,meteohub,2013-03-29 11:57:00,
2013-03-29 08:02:00,40.8,0.5,30.09,South,190,9.0,10.0,18,0.00,,,0.00,meteohub,2013-03-29 12:02:00,
2013-03-29 08:07:00,41.2,0.9,30.09,SW,231,9.0,10.0,18,0.00,,,0.00,meteohub,2013-03-29 12:07:00,
2013-03-29 08:12:00,41.5,1.2,30.09,SW,233,10.0,10.0,18,0.00,,,0.00,meteohub,2013-03-29 12:12:00,
2013-03-29 08:17:00,41.5,-1.3,30.09,WSW,241,8.0,11.0,16,0.00,,,0.00,meteohub,2013-03-29 12:17:00,
2013-03-29 08:23:00,41.9,-1.1,30.09,WSW,252,7.0,11.0,16,0.00,,,0.00,meteohub,2013-03-29 12:23:00,
2013-03-29 08:28:00,42.1,-0.9,30.09,West,277,11.0,11.0,16,0.00,,,0.00,meteohub,2013-03-29 12:28:00,
2013-03-29 08:33:00,42.4,-0.6,30.09,WSW,248,8.0,11.0,16,0.00,,,0.00,meteohub,2013-03-29 12:33:00,
2013-03-29 08:38:00,42.8,-4.7,30.09,WSW,250,7.0,11.0,13,0.00,,,0.00,meteohub,2013-03-29 12:38:00,
2013-03-29 08:44:00,42.8,-4.7,30.09,WSW,250,7.0,11.0,13,0.00,,,0.00,meteohub,2013-03-29 12:44:00,
2013-03-29 08:49:00,43.0,-4.5,30.09,WSW,243,8.0,11.0,13,0.00,,,0.00,meteohub,2013-03-29 12:49:00,
2013-03-29 08:54:00,43.5,-4.2,30.09,WSW,256,6.0,11.0,13,0.00,,,0.00,meteohub,2013-03-29 12:54:00,
2013-03-29 08:59:00,43.5,-4.2,30.09,WSW,252,9.0,13.0,13,0.00,,,0.00,meteohub,2013-03-29 12:59:00,
2013-03-29 09:04:00,44.1,-3.6,30.09,SW,217,4.0,13.0,13,0.00,,,0.00,meteohub,2013-03-29 13:04:00,
2013-03-29 09:10:00,44.1,-3.6,30.09,SW,218,9.0,13.0,13,0.00,,,0.00,meteohub,2013-03-29 13:10:00,
2013-03-29 09:15:00,44.6,-4.9,30.09,WSW,243,15.0,15.0,12,0.00,,,0.00,meteohub,2013-03-29 13:15:00,
2013-03-29 09:20:00,44.8,-8.5,30.09,WSW,243,5.0,14.0,10,0.00,,,0.00,meteohub,2013-03-29 13:20:00,
2013-03-29 09:26:00,45.7,-4.0,30.09,WSW,246,8.0,14.0,12,0.00,,,0.00,meteohub,2013-03-29 13:26:00,
2013-03-29 09:31:00,46.0,-7.6,30.09,West,269,7.0,14.0,10,0.00,,,0.00,meteohub,2013-03-29 13:31:00,
2013-03-29 09:37:00,46.4,-9.4,30.09,WSW,240,14.0,14.0,9,0.00,,,0.00,meteohub,2013-03-29 13:37:00,
2013-03-29 09:42:00,46.0,-7.6,30.09,WSW,247,13.0,13.0,10,0.00,,,0.00,meteohub,2013-03-29 13:42:00,
2013-03-29 09:47:00,46.8,-9.2,30.09,NW,321,6.0,13.0,9,0.00,,,0.00,meteohub,2013-03-29 13:47:00,
2013-03-29 09:52:00,47.5,-8.7,30.09,SW,224,8.0,15.0,9,0.00,,,0.00,meteohub,2013-03-29 13:52:00,
2013-03-29 09:57:00,47.5,-8.7,30.09,West,263,8.0,15.0,9,0.00,,,0.00,meteohub,2013-03-29 13:57:00,
2013-03-29 10:02:00,47.3,-8.7,30.09,SW,223,11.0,15.0,9,0.00,,,0.00,meteohub,2013-03-29 14:02:00,
2013-03-29 10:08:00,47.5,-8.7,30.09,South,178,9.0,15.0,9,0.00,,,0.00,meteohub,2013-03-29 14:08:00,
2013-03-29 10:13:00,47.8,-8.3,30.09,WSW,247,8.0,15.0,9,0.00,,,0.00,meteohub,2013-03-29 14:13:00,
2013-03-29 10:19:00,47.5,-8.7,30.09,SW,219,11.0,15.0,9,0.00,,,0.00,meteohub,2013-03-29 14:19:00,
2013-03-29 10:24:00,47.8,-8.3,30.09,SSW,208,13.0,15.0,9,0.00,,,0.00,meteohub,2013-03-29 14:24:00,
2013-03-29 10:29:00,48.2,-8.0,30.09,SSW,205,15.0,15.0,9,0.00,,,0.00,meteohub,2013-03-29 14:29:00,
2013-03-29 10:35:00,48.7,-7.6,30.09,SW,229,13.0,15.0,9,0.00,,,0.00,meteohub,2013-03-29 14:35:00,
2013-03-29 10:40:00,48.9,-7.4,30.09,SSW,202,11.0,15.0,9,0.00,,,0.00,meteohub,2013-03-29 14:40:00,
2013-03-29 10:45:00,49.6,-6.9,30.09,WSW,253,15.0,15.0,9,0.00,,,0.00,meteohub,2013-03-29 14:45:00,
2013-03-29 10:51:00,51.3,-5.6,30.09,West,274,18.0,18.0,9,0.00,,,0.00,meteohub,2013-03-29 14:51:00,
2013-03-29 10:56:00,50.4,-6.3,30.09,SW,215,11.0,18.0,9,0.00,,,0.00,meteohub,2013-03-29 14:56:00,
2013-03-29 11:02:00,51.1,-5.8,30.09,WNW,290,9.0,18.0,9,0.00,,,0.00,meteohub,2013-03-29 15:02:00,
2013-03-29 11:07:00,52.2,-7.4,30.09,West,279,11.0,18.0,8,0.00,,,0.00,meteohub,2013-03-29 15:07:00,
2013-03-29 11:12:00,52.0,-7.6,30.09,NW,310,6.0,17.0,8,0.00,,,0.00,meteohub,2013-03-29 15:12:00,
2013-03-29 11:17:00,52.9,-6.9,30.09,West,273,13.0,17.0,8,0.00,,,0.00,meteohub,2013-03-29 15:17:00,
2013-03-29 11:22:00,51.6,-5.4,30.09,WSW,245,13.0,17.0,9,0.00,,,0.00,meteohub,2013-03-29 15:22:00,
2013-03-29 11:27:00,51.6,-5.4,30.09,WNW,284,8.0,17.0,9,0.00,,,0.00,meteohub,2013-03-29 15:27:00,
2013-03-29 11:33:00,52.0,-7.6,30.09,WNW,284,11.0,17.0,8,0.00,,,0.00,meteohub,2013-03-29 15:33:00,
2013-03-29 11:38:00,54.0,-6.2,30.09,WSW,253,12.0,17.0,8,0.00,,,0.00,meteohub,2013-03-29 15:38:00,
2013-03-29 11:44:00,55.2,-5.1,30.09,West,260,11.0,17.0,8,0.00,,,0.00,meteohub,2013-03-29 15:44:00,
2013-03-29 11:49:00,54.0,-6.2,30.09,West,279,11.0,17.0,8,0.00,,,0.00,meteohub,2013-03-29 15:49:00,
2013-03-29 11:55:00,55.2,-5.1,30.09,WNW,295,15.0,17.0,8,0.00,,,0.00,meteohub,2013-03-29 15:55:00,
2013-03-29 12:00:00,56.1,-10.3,30.09,SW,222,3.0,17.0,6,0.00,,,0.00,meteohub,2013-03-29 16:00:00,
2013-03-29 12:05:00,56.5,-10.1,30.09,NW,309,11.0,17.0,6,0.00,,,0.00,meteohub,2013-03-29 16:05:00,
2013-03-29 12:10:00,56.7,-9.9,30.09,West,278,11.0,17.0,6,0.00,,,0.00,meteohub,2013-03-29 16:10:00,
2013-03-29 12:16:00,57.0,-9.8,30.06,NW,308,6.0,17.0,6,0.00,,,0.00,meteohub,2013-03-29 16:16:00,
2013-03-29 12:21:00,57.4,-9.4,30.06,West,267,8.0,17.0,6,0.00,,,0.00,meteohub,2013-03-29 16:21:00,
2013-03-29 12:27:00,57.6,-9.2,30.06,WNW,302,11.0,17.0,6,0.00,,,0.00,meteohub,2013-03-29 16:27:00,
2013-03-29 12:32:00,58.1,-8.9,30.09,NW,321,9.0,17.0,6,0.00,,,0.00,meteohub,2013-03-29 16:32:00,
2013-03-29 12:37:00,58.1,-8.9,30.09,WNW,294,8.0,17.0,6,0.00,,,0.00,meteohub,2013-03-29 16:37:00,
2013-03-29 12:42:00,58.5,-8.7,30.09,West,263,6.0,15.0,6,0.00,,,0.00,meteohub,2013-03-29 16:42:00,
2013-03-29 12:47:00,58.8,-8.3,30.06,WNW,288,8.0,15.0,6,0.00,,,0.00,meteohub,2013-03-29 16:47:00,
2013-03-29 12:52:00,59.0,-8.3,30.06,WSW,255,10.0,15.0,6,0.00,,,0.00,meteohub,2013-03-29 16:52:00,
2013-03-29 12:57:00,59.7,-7.8,30.06,SW,233,5.0,15.0,6,0.00,,,0.00,meteohub,2013-03-29 16:57:00,
2013-03-29 13:03:00,59.4,-8.0,30.06,West,277,9.0,13.0,6,0.00,,,0.00,meteohub,2013-03-29 17:03:00,
2013-03-29 13:08:00,59.4,-8.0,30.06,NNW,331,10.0,13.0,6,0.00,,,0.00,meteohub,2013-03-29 17:08:00,
2013-03-29 13:13:00,59.5,-7.8,30.06,NW,312,6.0,13.0,6,0.00,,,0.00,meteohub,2013-03-29 17:13:00,
2013-03-29 13:18:00,60.1,-7.4,30.06,WNW,288,6.0,13.0,6,0.00,,,0.00,meteohub,2013-03-29 17:18:00,
2013-03-29 13:23:00,60.4,-7.2,30.06,NW,310,3.0,13.0,6,0.00,,,0.00,meteohub,2013-03-29 17:23:00,
2013-03-29 13:28:00,60.6,-7.1,30.06,South,170,4.0,11.0,6,0.00,,,0.00,meteohub,2013-03-29 17:28:00,
2013-03-29 13:34:00,57.7,-9.2,30.06,East,85,4.0,11.0,6,0.00,,,0.00,meteohub,2013-03-29 17:34:00,
2013-03-29 13:39:00,56.5,-10.1,30.06,East,79,3.0,8.0,6,0.00,,,0.00,meteohub,2013-03-29 17:39:00,
2013-03-29 13:44:00,56.8,-9.8,30.06,SSE,149,3.0,8.0,6,0.00,,,0.00,meteohub,2013-03-29 17:44:00,
2013-03-29 13:50:00,57.6,-9.2,30.06,SE,145,6.0,6.0,6,0.00,,,0.00,meteohub,2013-03-29 17:50:00,
2013-03-29 13:55:00,58.3,-8.9,30.06,ESE,115,7.0,7.0,6,0.00,,,0.00,meteohub,2013-03-29 17:55:00,
2013-03-29 14:00:00,58.3,-8.9,30.06,SE,145,6.0,6.0,6,0.00,,,0.00,meteohub,2013-03-29 18:00:00,
2013-03-29 14:05:00,58.3,-8.9,30.06,SE,133,5.0,8.0,6,0.00,,,0.00,meteohub,2013-03-29 18:05:00,
2013-03-29 14:11:00,58.6,-8.5,30.06,SE,137,6.0,8.0,6,0.00,,,0.00,meteohub,2013-03-29 18:11:00,
2013-03-29 14:16:00,58.8,-8.3,30.03,ESE,110,6.0,8.0,6,0.00,,,0.00,meteohub,2013-03-29 18:16:00,
2013-03-29 14:22:00,56.8,-9.8,30.03,SE,135,6.0,8.0,6,0.00,,,0.00,meteohub,2013-03-29 18:22:00,
2013-03-29 14:27:00,54.1,-8.7,30.03,SSE,163,5.0,8.0,7,0.00,,,0.00,meteohub,2013-03-29 18:27:00,
2013-03-29 14:32:00,52.5,-7.2,30.03,SSE,158,9.0,11.0,8,0.00,,,0.00,meteohub,2013-03-29 18:32:00,
2013-03-29 14:37:00,51.4,-5.6,30.03,SSE,154,8.0,11.0,9,0.00,,,0.00,meteohub,2013-03-29 18:37:00,
2013-03-29 14:42:00,51.1,-5.8,30.03,South,175,10.0,11.0,9,0.00,,,0.00,meteohub,2013-03-29 18:42:00,
2013-03-29 14:48:00,50.4,-6.3,30.06,South,186,8.0,12.0,9,0.00,,,0.00,meteohub,2013-03-29 18:48:00,
2013-03-29 14:53:00,50.2,-6.5,30.06,SSE,168,8.0,12.0,9,0.00,,,0.00,meteohub,2013-03-29 18:53:00,
2013-03-29 14:58:00,49.8,-6.9,30.06,SSE,153,6.0,13.0,9,0.00,,,0.00,meteohub,2013-03-29 18:58:00,
2013-03-29 15:04:00,49.8,-6.9,30.06,SSE,155,6.0,13.0,9,0.00,,,0.00,meteohub,2013-03-29 19:04:00,
2013-03-29 15:09:00,49.6,-6.9,30.06,SSE,153,7.0,11.0,9,0.00,,,0.00,meteohub,2013-03-29 19:09:00,
2013-03-29 15:14:00,49.5,-7.1,30.03,SE,138,7.0,11.0,9,0.00,,,0.00,meteohub,2013-03-29 19:14:00,
2013-03-29 15:20:00,49.1,-3.3,30.03,SE,138,8.0,8.0,11,0.00,,,0.00,meteohub,2013-03-29 19:20:00,
2013-03-29 15:25:00,48.7,-3.5,30.03,SE,146,6.0,8.0,11,0.00,,,0.00,meteohub,2013-03-29 19:25:00,
2013-03-29 15:30:00,48.7,-3.5,30.03,SE,145,6.0,8.0,11,0.00,,,0.00,meteohub,2013-03-29 19:30:00,
2013-03-29 15:35:00,49.3,-3.1,30.03,SSE,155,6.0,9.0,11,0.00,,,0.00,meteohub,2013-03-29 19:35:00,
2013-03-29 15:40:00,49.5,-2.9,30.03,SSE,162,7.0,9.0,11,0.00,,,0.00,meteohub,2013-03-29 19:40:00,
2013-03-29 15:46:00,49.5,-7.1,30.03,SSE,167,5.0,9.0,9,0.00,,,0.00,meteohub,2013-03-29 19:46:00,
2013-03-29 15:51:00,49.5,-7.1,30.03,SSE,159,8.0,8.0,9,0.00,,,0.00,meteohub,2013-03-29 19:51:00,
2013-03-29 15:57:00,49.5,-2.9,30.03,SE,146,5.0,8.0,11,0.00,,,0.00,meteohub,2013-03-29 19:57:00,
2013-03-29 16:02:00,48.9,-3.3,30.06,SSE,150,6.0,8.0,11,0.00,,,0.00,meteohub,2013-03-29 20:02:00,
2013-03-29 16:07:00,48.7,-3.5,30.06,South,169,6.0,9.0,11,0.00,,,0.00,meteohub,2013-03-29 20:07:00,
2013-03-29 16:12:00,48.6,-3.6,30.06,SSE,160,6.0,9.0,11,0.00,,,0.00,meteohub,2013-03-29 20:12:00,
2013-03-29 16:17:00,48.4,-3.8,30.03,South,174,6.0,9.0,11,0.00,,,0.00,meteohub,2013-03-29 20:17:00,
2013-03-29 16:22:00,48.2,-3.8,30.03,SSE,154,6.0,8.0,11,0.00,,,0.00,meteohub,2013-03-29 20:22:00,
2013-03-29 16:27:00,48.6,-3.6,30.03,SSE,161,6.0,8.0,11,0.00,,,0.00,meteohub,2013-03-29 20:27:00,
2013-03-29 16:33:00,48.4,-3.8,30.03,South,182,6.0,8.0,11,0.00,,,0.00,meteohub,2013-03-29 20:33:00,
2013-03-29 16:38:00,48.6,-7.8,30.03,South,182,5.0,8.0,9,0.00,,,0.00,meteohub,2013-03-29 20:38:00,
2013-03-29 16:43:00,48.7,-7.6,30.03,SSW,199,4.0,8.0,9,0.00,,,0.00,meteohub,2013-03-29 20:43:00,
2013-03-29 16:49:00,49.1,-7.4,30.03,South,187,8.0,8.0,9,0.00,,,0.00,meteohub,2013-03-29 20:49:00,
2013-03-29 16:54:00,49.3,-7.2,30.03,South,180,10.0,10.0,9,0.00,,,0.00,meteohub,2013-03-29 20:54:00,
2013-03-29 16:59:00,49.5,-7.1,30.06,South,190,13.0,13.0,9,0.00,,,0.00,meteohub,2013-03-29 20:59:00,
2013-03-29 17:04:00,49.3,-7.2,30.06,South,173,11.0,11.0,9,0.00,,,0.00,meteohub,2013-03-29 21:04:00,
2013-03-29 17:10:00,49.1,-7.4,30.06,SSE,161,8.0,13.0,9,0.00,,,0.00,meteohub,2013-03-29 21:10:00,
2013-03-29 17:15:00,48.9,-7.4,30.03,SSE,151,6.0,13.0,9,0.00,,,0.00,meteohub,2013-03-29 21:15:00,
2013-03-29 17:20:00,48.7,-7.6,30.03,SSE,147,8.0,12.0,9,0.00,,,0.00,meteohub,2013-03-29 21:20:00,
2013-03-29 17:25:00,48.4,-8.0,30.03,SSE,150,4.0,12.0,9,0.00,,,0.00,meteohub,2013-03-29 21:25:00,
2013-03-29 17:30:00,48.0,-2.2,30.03,SSE,150,5.0,12.0,12,0.00,,,0.00,meteohub,2013-03-29 21:30:00,
2013-03-29 17:36:00,47.7,-2.6,30.03,South,171,6.0,8.0,12,0.00,,,0.00,meteohub,2013-03-29 21:36:00,
2013-03-29 17:41:00,47.5,-2.6,30.03,South,183,9.0,9.0,12,0.00,,,0.00,meteohub,2013-03-29 21:41:00,
2013-03-29 17:47:00,47.3,-2.7,30.06,SSW,193,8.0,9.0,12,0.00,,,0.00,meteohub,2013-03-29 21:47:00,
2013-03-29 17:52:00,47.5,-8.7,30.06,South,187,5.0,9.0,9,0.00,,,0.00,meteohub,2013-03-29 21:52:00,
2013-03-29 17:57:00,48.0,-8.1,30.06,SSW,192,6.0,9.0,9,0.00,,,0.00,meteohub,2013-03-29 21:57:00,
2013-03-29 18:02:00,48.0,-8.1,30.06,SSW,202,8.0,9.0,9,0.00,,,0.00,meteohub,2013-03-29 22:02:00,
2013-03-29 18:07:00,48.0,-8.1,30.06,SSW,194,10.0,10.0,9,0.00,,,0.00,meteohub,2013-03-29 22:07:00,
2013-03-29 18:12:00,47.8,-8.3,30.06,SSW,193,11.0,11.0,9,0.00,,,0.00,meteohub,2013-03-29 22:12:00,
2013-03-29 18:17:00,47.7,-8.5,30.06,South,182,10.0,10.0,9,0.00,,,0.00,meteohub,2013-03-29 22:17:00,
2013-03-29 18:23:00,47.3,-8.7,30.06,SSW,197,10.0,14.0,9,0.00,,,0.00,meteohub,2013-03-29 22:23:00,
2013-03-29 18:28:00,47.5,-8.7,30.06,SSE,163,11.0,14.0,9,0.00,,,0.00,meteohub,2013-03-29 22:28:00,
2013-03-29 18:33:00,47.5,-8.7,30.06,South,187,11.0,14.0,9,0.00,,,0.00,meteohub,2013-03-29 22:33:00,
2013-03-29 18:38:00,47.3,-8.7,30.06,South,191,9.0,14.0,9,0.00,,,0.00,meteohub,2013-03-29 22:38:00,
2013-03-29 18:44:00,47.1,-8.9,30.06,South,182,8.0,12.0,9,0.00,,,0.00,meteohub,2013-03-29 22:44:00,
2013-03-29 18:49:00,47.1,-8.9,30.06,South,179,9.0,12.0,9,0.00,,,0.00,meteohub,2013-03-29 22:49:00,
2013-03-29 18:54:00,46.9,-9.0,30.06,South,188,8.0,11.0,9,0.00,,,0.00,meteohub,2013-03-29 22:54:00,
2013-03-29 19:00:00,46.8,-9.2,30.06,South,185,8.0,11.0,9,0.00,,,0.00,meteohub,2013-03-29 23:00:00,
2013-03-29 19:05:00,46.6,-9.2,30.06,South,171,10.0,11.0,9,0.00,,,0.00,meteohub,2013-03-29 23:05:00,
2013-03-29 19:10:00,46.2,-7.4,30.06,South,185,10.0,11.0,10,0.00,,,0.00,meteohub,2013-03-29 23:10:00,
2013-03-29 19:15:00,46.0,-7.6,30.06,SSE,155,8.0,12.0,10,0.00,,,0.00,meteohub,2013-03-29 23:15:00,
2013-03-29 19:21:00,45.7,-7.8,30.06,SSE,158,10.0,12.0,10,0.00,,,0.00,meteohub,2013-03-29 23:21:00,
2013-03-29 19:26:00,45.9,-4.0,30.06,SSW,197,8.0,12.0,12,0.00,,,0.00,meteohub,2013-03-29 23:26:00,
2013-03-29 19:31:00,45.9,-7.6,30.06,South,177,8.0,12.0,10,0.00,,,0.00,meteohub,2013-03-29 23:31:00,
2013-03-29 19:36:00,45.5,-8.0,30.06,SSW,193,10.0,12.0,10,0.00,,,0.00,meteohub,2013-03-29 23:36:00,
2013-03-29 19:42:00,45.5,-8.0,30.06,South,180,11.0,12.0,10,0.00,,,0.00,meteohub,2013-03-29 23:42:00,
2013-03-29 19:47:00,45.3,-8.1,30.06,SSW,194,13.0,13.0,10,0.00,,,0.00,meteohub,2013-03-29 23:47:00,
2013-03-29 19:52:00,45.3,-4.4,30.06,South,185,8.0,13.0,12,0.00,,,0.00,meteohub,2013-03-29 23:52:00,
2013-03-29 19:57:00,45.3,-4.4,30.06,SSW,195,8.0,13.0,12,0.00,,,0.00,meteohub,2013-03-29 23:57:00,
2013-03-29 20:02:00,45.1,-4.5,30.06,South,184,8.0,13.0,12,0.00,,,0.00,meteohub,2013-03-30 00:02:00,
2013-03-29 20:07:00,45.1,-4.5,30.06,SSE,156,11.0,13.0,12,0.00,,,0.00,meteohub,2013-03-30 00:07:00,
2013-03-29 20:12:00,45.1,-4.5,30.06,South,172,11.0,13.0,12,0.00,,,0.00,meteohub,2013-03-30 00:12:00,
2013-03-29 20:17:00,45.0,-4.5,30.06,SSW,210,10.0,13.0,12,0.00,,,0.00,meteohub,2013-03-30 00:17:00,
2013-03-29 20:22:00,45.0,-4.5,30.06,South,180,8.0,13.0,12,0.00,,,0.00,meteohub,2013-03-30 00:22:00,
2013-03-29 20:27:00,44.8,-4.7,30.06,SSW,192,8.0,13.0,12,0.00,,,0.00,meteohub,2013-03-30 00:27:00,
2013-03-29 20:32:00,44.8,0.0,30.06,South,175,9.0,13.0,15,0.00,,,0.00,meteohub,2013-03-30 00:32:00,
2013-03-29 20:37:00,44.4,-0.4,30.06,South,169,8.0,11.0,15,0.00,,,0.00,meteohub,2013-03-30 00:37:00,
2013-03-29 20:42:00,44.2,3.4,30.06,South,186,8.0,11.0,18,0.00,,,0.00,meteohub,2013-03-30 00:42:00,
2013-03-29 20:48:00,44.2,5.7,30.09,SSE,159,9.0,11.0,20,0.00,,,0.00,meteohub,2013-03-30 00:48:00,
2013-03-29 20:53:00,44.2,10.6,30.09,South,170,6.0,11.0,25,0.00,,,0.00,meteohub,2013-03-30 00:53:00,
2013-03-29 20:58:00,44.2,10.6,30.09,SSE,156,10.0,11.0,25,0.00,,,0.00,meteohub,2013-03-30 00:58:00,
2013-03-29 21:04:00,44.1,13.1,30.09,South,172,8.0,11.0,28,0.00,,,0.00,meteohub,2013-03-30 01:04:00,
2013-03-29 21:09:00,44.1,13.1,30.09,SSE,156,8.0,10.0,28,0.00,,,0.00,meteohub,2013-03-30 01:09:00,
2013-03-29 21:14:00,43.9,12.9,30.09,South,169,9.0,10.0,28,0.00,,,0.00,meteohub,2013-03-30 01:14:00,
2013-03-29 21:19:00,43.9,12.9,30.09,South,178,8.0,11.0,28,0.00,,,0.00,meteohub,2013-03-30 01:19:00,
2013-03-29 21:24:00,43.9,13.6,30.09,South,178,8.0,11.0,29,0.00,,,0.00,meteohub,2013-03-30 01:24:00,
2013-03-29 21:29:00,43.9,13.6,30.09,South,173,7.0,11.0,29,0.00,,,0.00,meteohub,2013-03-30 01:29:00,
2013-03-29 21:35:00,43.7,13.5,30.09,South,183,6.0,10.0,29,0.00,,,0.00,meteohub,2013-03-30 01:35:00,
2013-03-29 21:40:00,43.9,14.4,30.09,SSW,213,4.0,10.0,30,0.00,,,0.00,meteohub,2013-03-30 01:40:00,
2013-03-29 21:45:00,43.5,14.2,30.09,SW,215,4.0,10.0,30,0.00,,,0.00,meteohub,2013-03-30 01:45:00,
2013-03-29 21:51:00,43.5,13.3,30.09,SW,217,4.0,6.0,29,0.00,,,0.00,meteohub,2013-03-30 01:51:00,
2013-03-29 21:56:00,43.3,13.3,30.09,SW,224,3.0,6.0,29,0.00,,,0.00,meteohub,2013-03-30 01:56:00,
2013-03-29 22:01:00,43.2,13.1,30.09,SW,224,3.0,6.0,29,0.00,,,0.00,meteohub,2013-03-30 02:01:00,
2013-03-29 22:07:00,43.2,13.1,30.09,SW,224,3.0,5.0,29,0.00,,,0.00,meteohub,2013-03-30 02:07:00,
2013-03-29 22:12:00,43.0,12.9,30.09,SW,224,3.0,5.0,29,0.00,,,0.00,meteohub,2013-03-30 02:12:00,
2013-03-29 22:17:00,42.8,12.7,30.09,SW,224,4.0,5.0,29,0.00,,,0.00,meteohub,2013-03-30 02:17:00,
2013-03-29 22:23:00,42.8,12.7,30.09,SW,224,3.0,4.0,29,0.00,,,0.00,meteohub,2013-03-30 02:23:00,
2013-03-29 22:28:00,42.8,12.7,30.09,SW,224,4.0,4.0,29,0.00,,,0.00,meteohub,2013-03-30 02:28:00,
2013-03-29 22:33:00,43.0,12.9,30.09,WSW,244,4.0,4.0,29,0.00,,,0.00,meteohub,2013-03-30 02:33:00,
2013-03-29 22:38:00,43.0,12.9,30.09,WSW,237,4.0,6.0,29,0.00,,,0.00,meteohub,2013-03-30 02:38:00,
2013-03-29 22:44:00,43.0,12.0,30.09,WSW,237,5.0,6.0,28,0.00,,,0.00,meteohub,2013-03-30 02:44:00,
2013-03-29 22:49:00,43.2,12.2,30.09,WSW,249,4.0,6.0,28,0.00,,,0.00,meteohub,2013-03-30 02:49:00,
2013-03-29 22:54:00,43.2,9.7,30.09,SW,225,5.0,6.0,25,0.00,,,0.00,meteohub,2013-03-30 02:54:00,
2013-03-29 22:59:00,43.5,8.2,30.09,West,278,3.0,6.0,23,0.00,,,0.00,meteohub,2013-03-30 02:59:00,
2013-03-29 23:04:00,43.7,3.0,30.09,WSW,258,8.0,10.0,18,0.00,,,0.00,meteohub,2013-03-30 03:04:00,
2013-03-29 23:10:00,44.2,-0.6,30.09,West,281,5.0,10.0,15,0.00,,,0.00,meteohub,2013-03-30 03:10:00,
2013-03-29 23:15:00,44.4,-3.5,30.09,West,279,3.0,10.0,13,0.00,,,0.00,meteohub,2013-03-30 03:15:00,
2013-03-29 23:20:00,44.4,-3.5,30.09,WNW,301,3.0,11.0,13,0.00,,,0.00,meteohub,2013-03-30 03:20:00,
2013-03-29 23:26:00,44.4,-3.5,30.09,WNW,291,3.0,11.0,13,0.00,,,0.00,meteohub,2013-03-30 03:26:00,
2013-03-29 23:31:00,44.4,-3.5,30.09,WNW,291,4.0,11.0,13,0.00,,,0.00,meteohub,2013-03-30 03:31:00,
2013-03-29 23:36:00,44.2,-3.5,30.09,WNW,291,4.0,4.0,13,0.00,,,0.00,meteohub,2013-03-30 03:36:00,
2013-03-29 23:42:00,43.9,-3.8,30.09,West,271,6.0,6.0,13,0.00,,,0.00,meteohub,2013-03-30 03:42:00,
2013-03-29 23:47:00,43.5,-4.2,30.09,West,271,5.0,8.0,13,0.00,,,0.00,meteohub,2013-03-30 03:47:00,
2013-03-29 23:52:00,43.5,-4.2,30.09,WSW,244,4.0,8.0,13,0.00,,,0.00,meteohub,2013-03-30 03:52:00,
2013-03-29 23:57:00,43.5,-4.2,30.09,SW,233,6.0,8.0,13,0.00,,,0.00,meteohub,2013-03-30 03:57:00,